sat.trackr.live / text

‹ back to catalog

FLOCK 4G-28

NORAD 62634 · 2025-009AB

PAYLOAD ACTIVE UNKNOWN

§ Identity

Operator
Country
US
Launch date
2025-01-14
Launch site
AFWTR
Launch vehicle
Mass (kg)
RCS (m²)

Purposes: earth_obs

External: N2YO · Heavens-Above · Gunter

§ Orbital elements

Epoch: 2026-09-19T13:04:51.646080Z

Period
93.73 min
Inclination
97.3979°
Eccentricity
0.0001345
Mean motion
15.36276084 rev/d
Perigee alt
456.2 km
Apogee alt
458.1 km
Semi-major
6,835.3 km
B*
1.8472e-4
RAAN
347.5222°
Arg perigee
24.9940°
Mean anomaly
335.1369°
Rev number
9,356

§ Raw data

FLOCK 4G-281 62634U 25009AB  26262.54504220  .00006450  00000+0  18472-3 0  99962 62634  97.3979 347.5222 0001345  24.9940 335.1369 15.36276084 93568

JSON: /api/v1/satellites/62634 · /tle

For live sub-satellite position, see the globe view (requires WebGL).

§ Visibility from observer

Set your observer location to see the next 7 days of passes ≥ 10°. The values pass through the URL so the page stays shareable.

No JS? Fill the form by hand. The geolocation button needs JavaScript.